[[{"header":{"parameterUnit":"m.s-1","parameterCategory":1,"la1":30.2991,"la2":30.254,"lo1":-89.0895,"lo2":-89.0444,"dy":0.0017,"dx":0.0017,"nx":28,"ny":28,"refTime":"2025-09-14T21:00:00:Z","depth":0,"parameterNumber":2,"parameterNumberName":"U-component_of_WINDS"},"data":[0,0,0,0,0,0,0,0,0,0,0,0,0,0,0,0,0,0,0,0,0,0,0,0,0,0,0,0,0,0,0,0,0,0,0,0,0,0,0,0,0,0,0,0,0,0,0,0,0,0,0,0,0,0,0,0,0,0,-1.179,-1.1789,0,-1.1751,-1.175,-1.175,-1.1706,-1.1706,-1.1705,-1.1704,-1.1666,-1.1665,-1.1665,0,0,0,0,0,0,0,0,0,0,0,0,0,-1.1828,-1.1828,-1.179,-1.1789,-1.1789,-1.1751,-1.175,-1.175,-1.1706,-1.1706,-1.1705,-1.1704,-1.1666,-1.1665,-1.1665,0,0,0,0,0,0,0,0,0,0,0,0,0,-1.1803,-1.1828,-1.179,-1.1762,-1.176,-1.1751,-1.175,-1.175,-1.1706,-1.1706,-1.1705,-1.1704,-1.1666,-1.1665,-1.1665,-1.1681,0,0,-1.1663,-1.1663,0,0,0,0,0,0,0,0,-1.1804,-1.1801,-1.1767,-1.1764,-1.1761,-1.1732,-1.175,-1.1727,-1.1707,-1.1727,-1.1704,-1.1703,-1.1689,-1.1686,-1.1681,-1.1679,-1.1677,-1.1663,-1.1663,-1.1662,-1.1662,0,0,0,0,0,0,0,-1.1806,-1.1803,-1.1774,-1.1766,-1.1763,-1.1753,-1.1748,-1.1745,-1.1714,-1.1725,-1.1722,-1.1718,-1.1687,-1.1682,-1.168,-1.1677,-1.1663,-1.1662,-1.1662,-1.1662,-1.1687,-1.1688,0,0,0,0,0,0,-1.1812,-1.1805,-1.1776,-1.1773,-1.1781,-1.1753,-1.1748,-1.1743,-1.1714,-1.1708,-1.1718,-1.1716,-1.1683,-1.1681,-1.1678,-1.1695,-1.1662,-1.1662,-1.1661,-1.1686,-1.1687,-1.1688,0,0,0,0,0,0,-1.1813,-1.181,-1.1777,-1.1788,-1.1783,-1.1753,-1.1748,-1.1742,-1.1737,-1.1709,-1.1703,-1.1719,-1.1683,-1.1679,-1.1681,-1.1693,-1.1661,-1.1661,-1.1684,-1.1686,-1.1687,-1.1729,0,0,0,0,0,0,-1.1814,-1.181,-1.1815,-1.1788,-1.1783,-1.1779,-1.1749,-1.1742,-1.1736,-1.1732,-1.1708,-1.1703,-1.1682,-1.1682,-1.168,-1.1692,-1.166,-1.1683,-1.1685,-1.1687,-1.1727,-1.1732,-1.1737,0,0,0,0,0,-1.1815,-1.1828,-1.1816,-1.1812,-1.1788,-1.178,-1.1777,-1.1752,-1.1737,-1.1742,-1.1725,-1.1703,-1.1693,-1.1682,-1.168,-1.1692,-1.1682,-1.1685,-1.1687,-1.1724,-1.1731,-1.1737,0,0,0,0,0,0,-1.1857,-1.1824,-1.181,-1.1814,-1.18,-1.1773,-1.1778,-1.176,-1.175,-1.1747,-1.1717,-1.1712,-1.1717,-1.1705,-1.1694,-1.1706,-1.1684,-1.1686,-1.1714,-1.172,-1.1725,-1.1728,-1.166,0,0,0,0,0,-1.1867,-1.1863,-1.1834,-1.1841,-1.1835,-1.1808,-1.1804,-1.1786,-1.177,-1.1764,-1.1746,-1.1733,-1.1726,-1.1723,-1.1715,-1.1725,-1.172,-1.1733,-1.1738,-1.1742,-1.1744,-1.1749,-1.1755,-1.1696,-1.1696,-1.1696,0,0,-1.1887,-1.1869,-1.1868,-1.1849,-1.1836,-1.1833,-1.1803,-1.1801,-1.1799,-1.1764,-1.1764,-1.1751,-1.1734,-1.174,-1.1742,-1.173,-1.1759,-1.1745,-1.1749,-1.1748,-1.1752,-1.1758,-1.1763,-1.1697,-1.1697,-1.1697,0,0,-1.1922,-1.1907,-1.1912,-1.19,-1.1881,-1.1863,-1.1864,-1.184,-1.183,-1.1829,-1.1804,-1.1801,-1.179,-1.1779,-1.1773,-1.1806,-1.1786,-1.1804,-1.183,-1.1836,-1.1841,-1.1845,-1.1857,-1.1862,-1.1806,-1.1806,-1.1807,0,-1.1949,-1.1943,-1.1916,-1.1916,-1.1909,-1.1878,-1.1883,-1.1873,-1.1853,-1.1849,-1.1836,-1.1823,-1.1809,-1.1813,-1.1821,-1.1816,-1.1818,-1.1806,-1.1842,-1.1846,-1.1849,-1.1861,-1.1865,-1.1809,-1.1808,-1.1808,-1.1808,0,-1.1978,-1.1974,-1.198,-1.1961,-1.1955,-1.1958,-1.1932,-1.193,-1.1913,-1.1897,-1.1898,-1.1881,-1.187,-1.1869,-1.1853,-1.1871,-1.1865,-1.1848,-1.1825,-1.1858,-1.1868,-1.1872,-1.1812,-1.1811,-1.1811,-1.181,0,0,-1.2036,-1.2004,-1.2007,-1.1998,-1.1976,-1.1973,-1.1975,-1.1964,-1.1962,-1.195,-1.1951,-1.1944,-1.1928,-1.1921,-1.1903,-1.1908,-1.1936,-1.189,-1.189,-1.19,-1.1956,-1.1969,-1.1974,-1.1924,-1.1924,-1.1925,-1.1957,0,-1.2067,-1.2067,-1.2044,-1.2051,-1.2048,-1.2019,-1.2021,-1.2008,-1.1994,-1.199,-1.1974,-1.1969,-1.1949,-1.1944,-1.1948,-1.1932,-1.1947,-1.1929,-1.1925,-1.1925,-1.1929,-1.1979,-1.1992,-1.2024,-1.1961,-1.1962,-1.1962,0,-1.2102,-1.2092,-1.2099,-1.2077,-1.2075,-1.2077,-1.2066,-1.2062,-1.2047,-1.2037,-1.2029,-1.201,-1.2011,-1.199,-1.1992,-1.198,-1.1977,-1.1969,-1.197,-1.1968,-1.1945,-1.1979,-1.2033,-1.2038,-1.1968,-1.1968,-1.1967,0,-1.2145,-1.2133,-1.2135,-1.2129,-1.2104,-1.2106,-1.2096,-1.208,-1.2076,-1.2067,-1.2064,-1.2055,-1.205,-1.2044,-1.2023,-1.201,-1.2028,-1.2005,-1.2019,-1.202,-1.2024,-1.2024,-1.2078,-1.2023,-1.2023,-1.2022,-1.2022,0,-1.2181,-1.2187,-1.2154,-1.2156,-1.2161,-1.2136,-1.2142,-1.2129,-1.2116,-1.2115,-1.2091,-1.2091,-1.2063,-1.206,-1.2044,-1.2049,-1.2047,-1.2039,-1.2034,-1.2041,-1.2042,-1.2038,-1.2035,-1.2024,-1.2023,-1.2023,-1.2023,0,-1.2229,-1.2208,-1.2209,-1.2185,-1.218,-1.2185,-1.2165,-1.2166,-1.2151,-1.2151,-1.2149,-1.2126,-1.2121,-1.21,-1.2091,-1.208,-1.209,-1.2081,-1.2095,-1.2092,-1.2108,-1.2106,-1.2161,-1.2167,-1.2108,-1.2109,-1.2109,0,-1.2254,-1.2257,-1.2234,-1.2232,-1.2223,-1.2219,-1.2215,-1.219,-1.2187,-1.2171,-1.2174,-1.2168,-1.2162,-1.2157,-1.2139,-1.2132,-1.2123,-1.2143,-1.2122,-1.2129,-1.2124,-1.2124,-1.2124,-1.2147,-1.2148,-1.2149,-1.2149,0,-1.23,-1.2289,-1.2283,-1.2274,-1.2269,-1.226,-1.2251,-1.225,-1.2224,-1.2221,-1.2216,-1.2211,-1.2202,-1.2197,-1.2187,-1.2178,-1.2159,-1.2156,-1.2159,-1.2165,-1.2173,-1.2169,-1.2107,-1.2155,-1.2154,-1.2154,-1.2153,-1.2153,-1.2337,-1.2339,-1.2323,-1.2318,-1.2308,-1.23,-1.23,-1.2285,-1.228,-1.2271,-1.2257,-1.2254,-1.2241,-1.2226,-1.2219,-1.2217,-1.2206,-1.221,-1.2212,-1.2213,-1.2217,-1.2174,-1.2215,-1.2215,-1.2215,-1.2214,-1.2214,0,-1.2382,-1.2371,-1.2366,-1.2353,-1.2349,-1.2332,-1.2321,-1.2319,-1.2316,-1.2305,-1.23,-1.2295,-1.229,-1.2273,-1.2266,-1.2268,-1.226,-1.2267,-1.2267,-1.2265,-1.2226,-1.2224,-1.2274,-1.2274,-1.2274,-1.2274,-1.2274,-1.2274,-1.2405,-1.2407,-1.2395,-1.2394,-1.2383,-1.2379,-1.2375,-1.2367,-1.2358,-1.2354,-1.235,-1.2338,-1.2325,-1.2318,-1.2313,-1.2308,-1.2307,-1.2317,-1.231,-1.2273,-1.2268,-1.2262,-1.226,-1.2317,-1.2317,-1.2348,-1.2349,-1.2349]},{"header":{"parameterUnit":"m.s-1","parameterCategory":1,"la1":30.2991,"la2":30.254,"lo1":-89.0895,"lo2":-89.0444,"dy":0.0017,"dx":0.0017,"nx":28,"ny":28,"refTime":"2025-09-14T21:00:00:Z","depth":0,"parameterNumber":3,"parameterNumberName":"V-component_of_WINDS"},"data":[0,0,0,0,0,0,0,0,0,0,0,0,0,0,0,0,0,0,0,0,0,0,0,0,0,0,0,0,0,0,0,0,0,0,0,0,0,0,0,0,0,0,0,0,0,0,0,0,0,0,0,0,0,0,0,0,0,0,3.5563,3.5563,0,3.5551,3.5551,3.5551,3.5584,3.5585,3.5586,3.5587,3.5569,3.5567,3.5566,0,0,0,0,0,0,0,0,0,0,0,0,0,3.561,3.5609,3.5564,3.5563,3.5563,3.5552,3.5551,3.5551,3.5584,3.5585,3.5586,3.5588,3.5569,3.5567,3.5566,0,0,0,0,0,0,0,0,0,0,0,0,0,3.5593,3.5608,3.5564,3.5578,3.558,3.5552,3.5551,3.5551,3.5584,3.5585,3.5587,3.5588,3.557,3.5567,3.5565,3.5521,0,0,3.5559,3.5558,0,0,0,0,0,0,0,0,3.5593,3.5591,3.5576,3.5577,3.5579,3.5571,3.5561,3.5541,3.5583,3.5582,3.5587,3.5589,3.5568,3.5566,3.556,3.552,3.5519,3.5558,3.5557,3.5556,3.5556,0,0,0,0,0,0,0,3.5595,3.5591,3.5559,3.5576,3.5577,3.5584,3.5583,3.5557,3.5566,3.5582,3.5584,3.5583,3.5569,3.5562,3.556,3.5519,3.5558,3.5557,3.5555,3.5554,3.5441,3.5439,0,0,0,0,0,0,3.5595,3.5592,3.5559,3.5558,3.559,3.5582,3.5581,3.5572,3.5566,3.5567,3.5582,3.5585,3.5565,3.5562,3.5559,3.5506,3.5556,3.5554,3.5553,3.5443,3.5441,3.5439,0,0,0,0,0,0,3.5596,3.5591,3.5559,3.5576,3.5572,3.5579,3.5569,3.5571,3.5564,3.5566,3.5567,3.5574,3.5566,3.5562,3.553,3.5506,3.5553,3.5551,3.5445,3.5442,3.544,3.54,0,0,0,0,0,0,3.5597,3.5592,3.5576,3.5575,3.5571,3.5532,3.5567,3.5569,3.5561,3.5565,3.5559,3.5559,3.5567,3.5533,3.5528,3.5504,3.5549,3.5447,3.5443,3.544,3.5403,3.5396,3.539,0,0,0,0,0,3.5598,3.5564,3.5575,3.5571,3.5552,3.5531,3.5528,3.554,3.5559,3.5542,3.5544,3.5559,3.551,3.553,3.5524,3.5499,3.5448,3.5444,3.5441,3.5406,3.5398,3.5391,0,0,0,0,0,0,3.5559,3.5564,3.5576,3.5541,3.5536,3.5537,3.5516,3.553,3.5517,3.5521,3.5534,3.5532,3.5498,3.5495,3.5517,3.5455,3.5482,3.5477,3.5458,3.545,3.5443,3.5444,3.5548,0,0,0,0,0,3.5546,3.553,3.5535,3.5503,3.55,3.5509,3.55,3.5509,3.5503,3.55,3.5499,3.5491,3.5474,3.5462,3.5446,3.5404,3.5402,3.5383,3.5377,3.5372,3.5366,3.5343,3.5335,3.5426,3.5426,3.5426,0,0,3.5519,3.5521,3.5509,3.5496,3.5492,3.5474,3.5506,3.5485,3.5471,3.5496,3.5467,3.5466,3.5457,3.542,3.5404,3.5417,3.5341,3.5367,3.5362,3.536,3.5339,3.533,3.5322,3.5424,3.5424,3.5424,0,0,3.5461,3.5461,3.5435,3.5432,3.5427,3.5433,3.5427,3.5426,3.5427,3.5398,3.5417,3.5399,3.5369,3.5363,3.5355,3.5296,3.5309,3.529,3.5255,3.5233,3.5225,3.5219,3.5197,3.5189,3.5285,3.5285,3.5285,0,3.5428,3.5403,3.5419,3.5397,3.539,3.5415,3.5387,3.5383,3.5372,3.5366,3.5382,3.5345,3.5341,3.5303,3.5288,3.5282,3.5274,3.529,3.5226,3.5219,3.5214,3.5193,3.5184,3.5283,3.5283,3.5283,3.5284,0,3.5362,3.5344,3.5323,3.5315,3.5306,3.5281,3.5292,3.528,3.5291,3.5294,3.5264,3.526,3.5244,3.5236,3.5245,3.5198,3.5207,3.5224,3.5251,3.5202,3.5183,3.5175,3.5279,3.528,3.5281,3.5282,0,0,3.5277,3.528,3.5272,3.5268,3.5266,3.5252,3.5228,3.5214,3.5203,3.5196,3.5175,3.515,3.5166,3.5157,3.5166,3.5146,3.5099,3.5166,3.5166,3.5152,3.5046,3.5032,3.5023,3.5108,3.5107,3.5106,3.5046,0,3.522,3.5181,3.5195,3.5154,3.5138,3.5161,3.514,3.5135,3.5138,3.5123,3.5126,3.5107,3.513,3.5126,3.5107,3.5108,3.5077,3.5113,3.5087,3.5086,3.5088,3.5013,3.4999,3.4943,3.5039,3.5038,3.5037,0,3.5147,3.5139,3.5097,3.5098,3.5092,3.5073,3.5062,3.5048,3.5042,3.5046,3.5037,3.505,3.5025,3.5053,3.5018,3.5042,3.5032,3.5031,3.5029,3.5026,3.5058,3.5007,3.4925,3.4916,3.5025,3.5026,3.5027,0,3.5088,3.5067,3.5039,3.5036,3.5036,3.5023,3.5022,3.5018,3.5009,3.4999,3.4993,3.4979,3.4971,3.4959,3.4967,3.4987,3.493,3.4959,3.4931,3.493,3.4916,3.4917,3.4831,3.4912,3.4912,3.4912,3.4912,0,3.5022,3.4995,3.5013,3.4996,3.4967,3.4982,3.4952,3.4954,3.4951,3.4933,3.4952,3.4934,3.4947,3.493,3.4936,3.4905,3.4902,3.4903,3.4904,3.49,3.49,3.4893,3.4897,3.491,3.491,3.4911,3.4911,0,3.4951,3.4962,3.4934,3.4937,3.4938,3.4916,3.4918,3.4901,3.4907,3.4884,3.4879,3.4886,3.4867,3.4875,3.4854,3.4858,3.4819,3.4826,3.4821,3.4823,3.4794,3.4796,3.4699,3.4687,3.4777,3.4776,3.4775,0,3.4907,3.4888,3.489,3.4881,3.488,3.4864,3.4856,3.487,3.486,3.4853,3.4837,3.4821,3.4808,3.4777,3.4778,3.4763,3.4769,3.4736,3.4766,3.4763,3.4767,3.4768,3.4766,3.473,3.4729,3.4728,3.4727,0,3.4829,3.4836,3.4824,3.4814,3.4804,3.4797,3.479,3.4781,3.4795,3.4783,3.4765,3.4756,3.4736,3.4719,3.4705,3.4702,3.4716,3.4718,3.471,3.4706,3.4703,3.4703,3.4804,3.472,3.472,3.4721,3.4721,3.4722,3.4769,3.4753,3.4753,3.4739,3.4737,3.4731,3.4716,3.472,3.4706,3.4692,3.4701,3.468,3.4675,3.4658,3.4654,3.4636,3.4648,3.4638,3.4635,3.4631,3.4627,3.4707,3.4633,3.4634,3.4634,3.4634,3.4634,0,3.4691,3.4693,3.468,3.4672,3.4661,3.4678,3.4672,3.4661,3.4643,3.4638,3.4626,3.4606,3.4589,3.4591,3.4575,3.4561,3.4567,3.4556,3.4556,3.4555,3.4617,3.4625,3.4551,3.4551,3.4551,3.4551,3.4551,3.4551,3.4649,3.4623,3.4629,3.4601,3.4602,3.4584,3.4579,3.4573,3.4569,3.4546,3.4533,3.4535,3.4533,3.4517,3.4502,3.4503,3.4496,3.4482,3.4485,3.4543,3.4551,3.4559,3.4566,3.4481,3.4481,3.4424,3.4424,3.4423]}]]